Location: Newark
(42.9260°N, 89.3850°W)
Time: 05:31:38
(UTC+00:00)

STARLINK 1035 - Pass Details

Date: 12 December 2019
Orbit: 452 x 453 km, 53.0° (Epoch: 26 January)

Event Time Altitude Azimuth Distance (km) Brightness Sun altitude
Exits shadow 11:48:28 11° 218° (SW) 1,374 5.4 -15.9°
Drops below altitude 10° 11:49:00 10° 209° (SSW) 1,441 5.6 -15.9°
Sets 11:52:08 0° 175° (S) 2,301 7.1 -15.3°
